This is the latest recevied weather packets stored in our database for station/object KC5EZZ-2. If no packets are shown the sender has not sent any weather packets the latest 10 day(s).
| Time | Temp. | Humidity | Pressure | Rain* | Wind** | Luminosity | Snow |
|---|---|---|---|---|---|---|---|
| 1777431791 | 26.11° C | - | - | 0 mm | 1.34 m/s, 167° | - | - |
| 1777431488 | 25.56° C | - | - | 0 mm | 1.79 m/s, 172° | - | - |
| 1777431189 | 26.11° C | - | - | 0 mm | 2.24 m/s, 181° | - | - |
| 1777430889 | 26.11° C | - | - | 0 mm | 1.79 m/s, 173° | - | - |
| 1777430586 | 26.11° C | - | - | 0 mm | 1.79 m/s, 172° | - | - |
| 1777430287 | 26.67° C | - | - | 0 mm | 1.34 m/s, 177° | - | - |
| 1777429987 | 26.67° C | - | - | 0 mm | 1.34 m/s, 176° | - | - |
| 1777429685 | 26.67° C | - | - | 0 mm | 1.34 m/s, 184° | - | - |
| 1777429385 | 27.22° C | - | - | 0 mm | 1.34 m/s, 188° | - | - |
| 1777429085 | 27.22° C | - | - | 0 mm | 1.79 m/s, 179° | - | - |
| 1777428783 | 27.22° C | - | - | 0 mm | 1.79 m/s, 181° | - | - |
| 1777428483 | 27.78° C | - | - | 0 mm | 1.79 m/s, 184° | - | - |
| 1777428184 | 27.78° C | - | - | 0 mm | 1.34 m/s, 166° | - | - |
| 1777427881 | 28.33° C | - | - | 0 mm | 1.79 m/s, 176° | - | - |
| 1777427581 | 28.33° C | - | - | 0 mm | 1.79 m/s, 193° | - | - |
| 1777427282 | 28.89° C | - | - | 0 mm | 1.34 m/s, 186° | - | - |
| 1777426979 | 28.89° C | - | - | 0 mm | 1.34 m/s, 177° | - | - |
| 1777426680 | 28.89° C | - | - | 0 mm | 1.34 m/s, 190° | - | - |
| 1777426380 | 29.44° C | - | - | 0 mm | 1.34 m/s, 172° | - | - |
| 1777426078 | 29.44° C | - | - | 0 mm | 1.34 m/s, 170° | - | - |
| 1777425778 | 30.56° C | - | - | 0 mm | 1.34 m/s, 177° | - | - |
| 1777425478 | 30.56° C | - | - | 0 mm | 1.79 m/s, 181° | - | - |
| 1777425176 | 30° C | - | - | 0 mm | 1.34 m/s, 181° | - | - |
| 1777424876 | 31.11° C | - | - | 0 mm | 1.79 m/s, 187° | - | - |
| 1777424577 | 32.22° C | - | - | 0 mm | 2.68 m/s, 177° | - | - |
* Rain latest hour (hover to see other rain measurements)
** Current wind speed in m/s (hover to see current wind gust speed)